Location: Malvern Link
(52.1333°N, 2.3000°W)
Time: 10:07:29
(UTC+00:00)

SPROUT - Pass Details

Date: 30 June 2022
Orbit: 588 x 598 km, 97.9° (Epoch: 17 August)

Event Time Altitude Azimuth Distance (km) Brightness Sun altitude
Exits shadow 01:45:28 16° 223° (SW) 1,555 ? -12.0°
Maximum altitude 01:47:43 25° 266° (W) 1,217 ? -11.9°
Drops below altitude 10° 01:51:11 10° 323° (NW) 1,929 ? -11.7°
Sets 01:53:41 0° 337° (NNW) 2,836 ? -11.5°
